Wetterdaten: Samstag, 06.12.2014
Datum Zeit Temp. A. Feuchte A. Luftdruck Regen Wind Richtung Richtung Sonnenschein ET UV Solar Taupunkt Windchill Windben Empfang
06.12.2014 00:00 2,9 C 85 % 1018,1 hPa 0,0 l/m 0,0 km/h (0 Bft) S 184 0 min 0,000 mm 0,0 UV-I 0 W/m 0,6 C 2,9 C 0,0 km/h (0 Bft) 0,00 %
06.12.2014 00:15 2,9 C 85 % 1018,0 hPa 0,0 l/m 0,0 km/h (0 Bft) SW 222 0 min 0,000 mm 0,0 UV-I 0 W/m 0,6 C 2,9 C 0,0 km/h (0 Bft) 0,00 %
06.12.2014 00:30 2,9 C 85 % 1017,9 hPa 0,0 l/m 0,0 km/h (0 Bft) S 183 0 min 0,000 mm 0,0 UV-I 0 W/m 0,6 C 2,9 C 0,0 km/h (0 Bft) 0,00 %
06.12.2014 00:45 2,9 C 86 % 1018,1 hPa 0,0 l/m 0,0 km/h (0 Bft) S-SW 211 0 min 0,000 mm 0,0 UV-I 0 W/m 0,8 C 2,9 C 0,0 km/h (0 Bft) 0,00 %
06.12.2014 01:00 3,0 C 86 % 1017,8 hPa 0,0 l/m 0,0 km/h (0 Bft) W-SW 254 0 min 0,000 mm 0,0 UV-I 0 W/m 0,9 C 3,0 C 0,0 km/h (0 Bft) 0,00 %
06.12.2014 01:15 3,0 C 86 % 1017,8 hPa 0,3 l/m 0,0 km/h (0 Bft) S-SW 211 0 min 0,000 mm 0,0 UV-I 0 W/m 0,9 C 3,0 C 0,0 km/h (0 Bft) 0,00 %
06.12.2014 01:30 3,0 C 86 % 1018,1 hPa 0,0 l/m 0,0 km/h (0 Bft) W-SW 254 0 min 0,000 mm 0,0 UV-I 0 W/m 0,9 C 3,0 C 0,0 km/h (0 Bft) 0,00 %
06.12.2014 01:45 2,9 C 86 % 1017,9 hPa 0,0 l/m 0,0 km/h (0 Bft) SW 220 0 min 0,000 mm 0,0 UV-I 0 W/m 0,8 C 2,9 C 0,0 km/h (0 Bft) 0,00 %
06.12.2014 02:00 2,9 C 86 % 1018,0 hPa 0,0 l/m 0,0 km/h (0 Bft) SW 220 0 min 0,000 mm 0,0 UV-I 0 W/m 0,8 C 2,9 C 0,0 km/h (0 Bft) 0,00 %
06.12.2014 02:15 2,9 C 86 % 1018,2 hPa 0,0 l/m 0,0 km/h (0 Bft) S 175 0 min 0,000 mm 0,0 UV-I 0 W/m 0,8 C 2,9 C 0,0 km/h (0 Bft) 0,00 %
06.12.2014 02:30 2,9 C 86 % 1018,0 hPa 0,0 l/m 0,0 km/h (0 Bft) W-SW 252 0 min 0,000 mm 0,0 UV-I 0 W/m 0,8 C 2,9 C 0,0 km/h (0 Bft) 0,00 %
06.12.2014 02:45 2,9 C 86 % 1018,2 hPa 0,0 l/m 0,0 km/h (0 Bft) S-SW 200 0 min 0,000 mm 0,0 UV-I 0 W/m 0,8 C 2,9 C 0,0 km/h (0 Bft) 0,00 %
06.12.2014 03:00 2,9 C 86 % 1018,1 hPa 0,0 l/m 0,0 km/h (0 Bft) W-SW 252 0 min 0,000 mm 0,0 UV-I 0 W/m 0,8 C 2,9 C 0,0 km/h (0 Bft) 0,00 %
06.12.2014 03:15 2,9 C 86 % 1018,4 hPa 0,0 l/m 0,0 km/h (0 Bft) SW 232 0 min 0,000 mm 0,0 UV-I 0 W/m 0,8 C 2,9 C 0,0 km/h (0 Bft) 0,00 %
06.12.2014 03:30 2,8 C 86 % 1018,2 hPa 0,0 l/m 0,0 km/h (0 Bft) SW 215 0 min 0,000 mm 0,0 UV-I 0 W/m 0,7 C 2,8 C 0,0 km/h (0 Bft) 0,00 %
06.12.2014 03:45 2,8 C 86 % 1017,9 hPa 0,0 l/m 0,0 km/h (0 Bft) SW 227 0 min 0,000 mm 0,0 UV-I 0 W/m 0,7 C 2,8 C 0,0 km/h (0 Bft) 0,00 %
06.12.2014 04:00 2,8 C 85 % 1018,0 hPa 0,0 l/m 0,0 km/h (0 Bft) SW 227 0 min 0,000 mm 0,0 UV-I 0 W/m 0,5 C 2,8 C 0,0 km/h (0 Bft) 0,00 %
06.12.2014 04:15 2,8 C 85 % 1018,3 hPa 0,0 l/m 0,0 km/h (0 Bft) SW 217 0 min 0,000 mm 0,0 UV-I 0 W/m 0,5 C 2,8 C 0,0 km/h (0 Bft) 0,00 %
06.12.2014 04:30 2,8 C 85 % 1018,3 hPa 0,0 l/m 0,0 km/h (0 Bft) SW 217 0 min 0,000 mm 0,0 UV-I 0 W/m 0,5 C 2,8 C 0,0 km/h (0 Bft) 0,00 %
06.12.2014 04:45 2,8 C 85 % 1018,0 hPa 0,0 l/m 0,0 km/h (0 Bft) SW 214 0 min 0,000 mm 0,0 UV-I 0 W/m 0,5 C 2,8 C 0,0 km/h (0 Bft) 0,00 %
06.12.2014 05:00 2,7 C 85 % 1018,2 hPa 0,0 l/m 0,0 km/h (0 Bft) SW 231 0 min 0,000 mm 0,0 UV-I 0 W/m 0,4 C 2,7 C 0,0 km/h (0 Bft) 0,00 %
06.12.2014 05:15 2,7 C 85 % 1018,3 hPa 0,0 l/m 0,4 km/h (0 Bft) SW 235 0 min 0,000 mm 0,0 UV-I 0 W/m 0,4 C 2,7 C 4,0 km/h (1 Bft) 0,00 %
06.12.2014 05:30 2,8 C 85 % 1018,3 hPa 0,0 l/m 0,0 km/h (0 Bft) W-SW 255 0 min 0,000 mm 0,0 UV-I 0 W/m 0,5 C 2,8 C 0,0 km/h (0 Bft) 0,00 %
06.12.2014 05:45 2,8 C 85 % 1018,6 hPa 0,0 l/m 0,0 km/h (0 Bft) S-SW 195 0 min 0,000 mm 0,0 UV-I 0 W/m 0,5 C 2,8 C 0,0 km/h (0 Bft) 0,00 %
06.12.2014 06:00 2,8 C 84 % 1018,6 hPa 0,0 l/m 0,0 km/h (0 Bft) W-SW 254 0 min 0,000 mm 0,0 UV-I 0 W/m 0,4 C 2,8 C 0,0 km/h (0 Bft) 0,00 %
06.12.2014 06:15 2,8 C 85 % 1018,7 hPa 0,0 l/m 0,0 km/h (0 Bft) S-SW 213 0 min 0,000 mm 0,0 UV-I 0 W/m 0,5 C 2,8 C 0,0 km/h (0 Bft) 0,00 %
06.12.2014 06:30 2,7 C 85 % 1018,8 hPa 0,0 l/m 0,0 km/h (0 Bft) SW 220 0 min 0,000 mm 0,0 UV-I 0 W/m 0,4 C 2,7 C 0,0 km/h (0 Bft) 0,00 %
06.12.2014 06:45 2,7 C 85 % 1018,8 hPa 0,0 l/m 0,0 km/h (0 Bft) S-SW 203 0 min 0,000 mm 0,0 UV-I 0 W/m 0,4 C 2,7 C 0,0 km/h (0 Bft) 0,00 %
06.12.2014 07:00 2,7 C 85 % 1018,9 hPa 0,0 l/m 0,0 km/h (0 Bft) SW 216 0 min 0,000 mm 0,0 UV-I 0 W/m 0,4 C 2,7 C 0,0 km/h (0 Bft) 0,00 %
06.12.2014 07:15 2,7 C 85 % 1019,1 hPa 0,0 l/m 0,0 km/h (0 Bft) W-SW 255 0 min 0,000 mm 0,0 UV-I 0 W/m 0,4 C 2,7 C 0,0 km/h (0 Bft) 0,00 %
06.12.2014 07:30 2,8 C 85 % 1019,4 hPa 0,0 l/m 0,0 km/h (0 Bft) SW 222 0 min 0,000 mm 0,0 UV-I 0 W/m 0,5 C 2,8 C 0,0 km/h (0 Bft) 0,00 %
06.12.2014 07:45 2,8 C 85 % 1019,4 hPa 0,0 l/m 0,0 km/h (0 Bft) W-SW 251 0 min 0,000 mm 0,0 UV-I 0 W/m 0,5 C 2,8 C 0,0 km/h (0 Bft) 0,00 %
06.12.2014 08:00 2,9 C 85 % 1019,3 hPa 0,0 l/m 0,7 km/h (0 Bft) W-SW 255 0 min 0,000 mm 0,0 UV-I 1 W/m 0,6 C 2,9 C 4,0 km/h (1 Bft) 0,00 %
06.12.2014 08:15 3,0 C 85 % 1019,5 hPa 0,0 l/m 0,0 km/h (0 Bft) W-SW 255 0 min 0,000 mm 0,0 UV-I 5 W/m 0,7 C 3,0 C 0,0 km/h (0 Bft) 0,00 %
06.12.2014 08:30 3,0 C 85 % 1019,6 hPa 0,0 l/m 0,0 km/h (0 Bft) W-SW 251 0 min 0,000 mm 0,0 UV-I 9 W/m 0,7 C 3,0 C 0,0 km/h (0 Bft) 0,00 %
06.12.2014 08:45 3,1 C 85 % 1019,6 hPa 0,0 l/m 0,0 km/h (0 Bft) SW 218 0 min 0,000 mm 0,0 UV-I 24 W/m 0,8 C 3,1 C 0,0 km/h (0 Bft) 0,00 %
06.12.2014 09:00 3,1 C 85 % 1019,7 hPa 0,0 l/m 0,0 km/h (0 Bft) S-SW 201 0 min 0,000 mm 0,0 UV-I 28 W/m 0,8 C 3,1 C 0,0 km/h (0 Bft) 0,00 %
06.12.2014 09:15 3,2 C 84 % 1019,8 hPa 0,0 l/m 0,7 km/h (0 Bft) W-SW 241 0 min 0,000 mm 0,0 UV-I 43 W/m 0,8 C 3,2 C 4,0 km/h (1 Bft) 0,00 %
06.12.2014 09:30 3,3 C 84 % 1019,8 hPa 0,0 l/m 0,0 km/h (0 Bft) S 175 0 min 0,000 mm 0,0 UV-I 39 W/m 0,9 C 3,3 C 0,0 km/h (0 Bft) 0,00 %
06.12.2014 09:45 3,3 C 83 % 1020,1 hPa 0,0 l/m 0,0 km/h (0 Bft) W-SW 250 0 min 0,000 mm 1,0 UV-I 62 W/m 0,7 C 3,3 C 0,0 km/h (0 Bft) 0,00 %
06.12.2014 10:00 3,4 C 83 % 1020,0 hPa 0,0 l/m 0,0 km/h (0 Bft) W-SW 241 0 min 0,000 mm 1,0 UV-I 60 W/m 0,8 C 3,4 C 0,0 km/h (0 Bft) 0,00 %
06.12.2014 10:15 3,5 C 82 % 1020,2 hPa 0,0 l/m 0,0 km/h (0 Bft) W-SW 238 0 min 0,000 mm 1,0 UV-I 57 W/m 0,7 C 3,5 C 0,0 km/h (0 Bft) 0,00 %
06.12.2014 10:30 3,7 C 81 % 1020,2 hPa 0,0 l/m 0,0 km/h (0 Bft) S 184 0 min 0,000 mm 1,0 UV-I 71 W/m 0,7 C 3,7 C 0,0 km/h (0 Bft) 0,00 %
06.12.2014 10:45 3,8 C 81 % 1020,3 hPa 0,0 l/m 0,0 km/h (0 Bft) W-SW 254 0 min 0,000 mm 1,0 UV-I 85 W/m 0,8 C 3,8 C 0,0 km/h (0 Bft) 0,00 %
06.12.2014 11:00 3,9 C 80 % 1020,3 hPa 0,0 l/m 1,8 km/h (1 Bft) W-SW 253 0 min 0,000 mm 1,0 UV-I 64 W/m 0,8 C 3,9 C 4,0 km/h (1 Bft) 0,00 %
06.12.2014 11:15 3,7 C 81 % 1020,3 hPa 0,0 l/m 0,4 km/h (0 Bft) W-SW 252 0 min 0,000 mm 1,0 UV-I 66 W/m 0,7 C 3,7 C 4,0 km/h (1 Bft) 0,00 %
06.12.2014 11:30 3,8 C 80 % 1020,2 hPa 0,0 l/m 0,0 km/h (0 Bft) W-SW 252 0 min 0,000 mm 1,0 UV-I 83 W/m 0,7 C 3,8 C 0,0 km/h (0 Bft) 0,00 %
06.12.2014 11:45 4,2 C 79 % 1020,0 hPa 0,0 l/m 0,0 km/h (0 Bft) W-SW 251 0 min 0,000 mm 1,0 UV-I 96 W/m 0,9 C 4,2 C 0,0 km/h (0 Bft) 0,00 %
06.12.2014 12:00 4,2 C 78 % 1020,0 hPa 0,0 l/m 0,0 km/h (0 Bft) SW 216 0 min 0,000 mm 1,0 UV-I 56 W/m 0,7 C 4,2 C 0,0 km/h (0 Bft) 0,00 %
06.12.2014 12:15 4,1 C 79 % 1019,9 hPa 0,0 l/m 0,0 km/h (0 Bft) W-SW 255 0 min 0,000 mm 1,0 UV-I 89 W/m 0,8 C 4,1 C 0,0 km/h (0 Bft) 0,00 %
06.12.2014 12:30 4,2 C 79 % 1019,8 hPa 0,0 l/m 0,0 km/h (0 Bft) W-SW 252 0 min 0,000 mm 1,0 UV-I 60 W/m 0,9 C 4,2 C 0,0 km/h (0 Bft) 0,00 %
06.12.2014 12:45 4,2 C 78 % 1019,8 hPa 0,0 l/m 0,0 km/h (0 Bft) SW 220 0 min 0,000 mm 1,0 UV-I 60 W/m 0,7 C 4,2 C 0,0 km/h (0 Bft) 0,00 %
06.12.2014 13:00 4,3 C 78 % 1019,6 hPa 0,0 l/m 0,0 km/h (0 Bft) SW 228 0 min 0,000 mm 1,0 UV-I 81 W/m 0,8 C 4,3 C 0,0 km/h (0 Bft) 0,00 %
06.12.2014 13:15 4,4 C 78 % 1019,8 hPa 0,0 l/m 0,7 km/h (0 Bft) W 272 0 min 0,000 mm 1,0 UV-I 63 W/m 0,9 C 4,4 C 4,0 km/h (1 Bft) 0,00 %
06.12.2014 13:30 4,2 C 77 % 1019,8 hPa 0,0 l/m 0,0 km/h (0 Bft) SW 236 0 min 0,000 mm 1,0 UV-I 70 W/m 0,5 C 4,2 C 0,0 km/h (0 Bft) 0,00 %
06.12.2014 13:45 4,4 C 76 % 1020,1 hPa 0,0 l/m 0,0 km/h (0 Bft) S-SO 160 0 min 0,000 mm 1,0 UV-I 80 W/m 0,5 C 4,4 C 0,0 km/h (0 Bft) 0,00 %
06.12.2014 14:00 4,3 C 76 % 1019,8 hPa 0,0 l/m 3,2 km/h (1 Bft) W-SW 251 0 min 0,000 mm 1,0 UV-I 63 W/m 0,5 C 4,3 C 7,9 km/h (2 Bft) 0,00 %
06.12.2014 14:15 4,2 C 77 % 1019,9 hPa 0,0 l/m 0,0 km/h (0 Bft) S-SW 206 0 min 0,000 mm 1,0 UV-I 60 W/m 0,5 C 4,2 C 0,0 km/h (0 Bft) 0,00 %
06.12.2014 14:30 4,2 C 77 % 1020,0 hPa 0,0 l/m 0,0 km/h (0 Bft) W-SW 237 0 min 0,000 mm 1,0 UV-I 53 W/m 0,5 C 4,2 C 0,0 km/h (0 Bft) 0,00 %
06.12.2014 14:45 4,1 C 76 % 1019,8 hPa 0,0 l/m 0,0 km/h (0 Bft) SW 231 0 min 0,000 mm 1,0 UV-I 45 W/m 0,3 C 4,1 C 0,0 km/h (0 Bft) 0,00 %
06.12.2014 15:00 4,0 C 76 % 1020,0 hPa 0,0 l/m 0,0 km/h (0 Bft) SW 216 0 min 0,000 mm 0,0 UV-I 25 W/m 0,2 C 4,0 C 0,0 km/h (0 Bft) 0,00 %
06.12.2014 15:15 3,8 C 77 % 1020,2 hPa 0,0 l/m 0,0 km/h (0 Bft) W-SW 255 0 min 0,000 mm 0,0 UV-I 8 W/m 0,1 C 3,8 C 0,0 km/h (0 Bft) 0,00 %
06.12.2014 15:30 3,6 C 78 % 1020,3 hPa 0,0 l/m 0,0 km/h (0 Bft) W-SW 251 0 min 0,000 mm 0,0 UV-I 0 W/m 0,1 C 3,6 C 0,0 km/h (0 Bft) 0,00 %
06.12.2014 15:45 3,4 C 79 % 1020,4 hPa 0,0 l/m 0,0 km/h (0 Bft) W-SW 238 0 min 0,000 mm 0,0 UV-I 0 W/m 0,1 C 3,4 C 0,0 km/h (0 Bft) 0,00 %
06.12.2014 16:00 3,4 C 80 % 1020,5 hPa 0,0 l/m 0,0 km/h (0 Bft) W-SW 245 0 min 0,000 mm 0,0 UV-I 0 W/m 0,3 C 3,4 C 0,0 km/h (0 Bft) 0,00 %
06.12.2014 16:15 3,3 C 79 % 1020,5 hPa 0,0 l/m 0,0 km/h (0 Bft) SW 224 0 min 0,000 mm 0,0 UV-I 0 W/m 0,0 C 3,3 C 0,0 km/h (0 Bft) 0,00 %
06.12.2014 16:30 3,2 C 79 % 1020,8 hPa 0,0 l/m 0,0 km/h (0 Bft) W-SW 256 0 min 0,000 mm 0,0 UV-I 0 W/m -0,1 C 3,2 C 0,0 km/h (0 Bft) 0,00 %
06.12.2014 16:45 3,1 C 82 % 1020,7 hPa 0,0 l/m 0,0 km/h (0 Bft) W-SW 244 0 min 0,000 mm 0,0 UV-I 0 W/m 0,3 C 3,1 C 0,0 km/h (0 Bft) 0,00 %
06.12.2014 17:00 2,9 C 82 % 1020,8 hPa 0,0 l/m 0,0 km/h (0 Bft) W-SW 244 0 min 0,000 mm 0,0 UV-I 0 W/m 0,1 C 2,9 C 0,0 km/h (0 Bft) 0,00 %
06.12.2014 17:15 2,9 C 82 % 1020,8 hPa 0,0 l/m 0,0 km/h (0 Bft) W-SW 251 0 min 0,000 mm 0,0 UV-I 0 W/m 0,1 C 2,9 C 0,0 km/h (0 Bft) 0,00 %
06.12.2014 17:30 2,8 C 82 % 1020,9 hPa 0,0 l/m 0,0 km/h (0 Bft) W-SW 254 0 min 0,000 mm 0,0 UV-I 0 W/m 0,0 C 2,8 C 0,0 km/h (0 Bft) 0,00 %
06.12.2014 17:45 2,8 C 83 % 1021,0 hPa 0,0 l/m 0,0 km/h (0 Bft) SW 232 0 min 0,000 mm 0,0 UV-I 0 W/m 0,2 C 2,8 C 0,0 km/h (0 Bft) 0,00 %
06.12.2014 18:00 2,8 C 83 % 1021,0 hPa 0,0 l/m 0,0 km/h (0 Bft) SW 232 0 min 0,000 mm 0,0 UV-I 0 W/m 0,2 C 2,8 C 0,0 km/h (0 Bft) 0,00 %
06.12.2014 18:15 2,8 C 83 % 1021,1 hPa 0,0 l/m 0,0 km/h (0 Bft) S-SW 198 0 min 0,000 mm 0,0 UV-I 0 W/m 0,2 C 2,8 C 0,0 km/h (0 Bft) 0,00 %
06.12.2014 18:30 2,8 C 82 % 1021,1 hPa 0,0 l/m 0,0 km/h (0 Bft) W-SW 250 0 min 0,000 mm 0,0 UV-I 0 W/m 0,0 C 2,8 C 0,0 km/h (0 Bft) 0,00 %
06.12.2014 18:45 2,8 C 82 % 1021,1 hPa 0,0 l/m 0,0 km/h (0 Bft) SW 234 0 min 0,000 mm 0,0 UV-I 0 W/m 0,0 C 2,8 C 0,0 km/h (0 Bft) 0,00 %
06.12.2014 19:00 2,8 C 82 % 1021,3 hPa 0,0 l/m 0,0 km/h (0 Bft) S-SW 210 0 min 0,000 mm 0,0 UV-I 0 W/m 0,0 C 2,8 C 0,0 km/h (0 Bft) 0,00 %
06.12.2014 19:15 2,8 C 82 % 1021,3 hPa 0,0 l/m 0,0 km/h (0 Bft) SW 216 0 min 0,000 mm 0,0 UV-I 0 W/m 0,0 C 2,8 C 0,0 km/h (0 Bft) 0,00 %
06.12.2014 19:30 2,7 C 83 % 1021,1 hPa 0,0 l/m 0,0 km/h (0 Bft) SW 227 0 min 0,000 mm 0,0 UV-I 0 W/m 0,1 C 2,7 C 0,0 km/h (0 Bft) 0,00 %
06.12.2014 19:45 2,6 C 83 % 1021,1 hPa 0,0 l/m 0,0 km/h (0 Bft) SW 235 0 min 0,000 mm 0,0 UV-I 0 W/m 0,0 C 2,6 C 0,0 km/h (0 Bft) 0,00 %
06.12.2014 20:00 2,6 C 83 % 1021,1 hPa 0,0 l/m 0,0 km/h (0 Bft) SW 226 0 min 0,000 mm 0,0 UV-I 0 W/m 0,0 C 2,6 C 0,0 km/h (0 Bft) 0,00 %
06.12.2014 20:15 2,5 C 83 % 1021,2 hPa 0,0 l/m 0,0 km/h (0 Bft) W-SW 252 0 min 0,000 mm 0,0 UV-I 0 W/m -0,1 C 2,5 C 0,0 km/h (0 Bft) 0,00 %
06.12.2014 20:30 2,5 C 83 % 1021,1 hPa 0,3 l/m 0,0 km/h (0 Bft) W-SW 253 0 min 0,000 mm 0,0 UV-I 0 W/m -0,1 C 2,5 C 0,0 km/h (0 Bft) 0,00 %
06.12.2014 20:45 2,5 C 83 % 1021,3 hPa 0,0 l/m 0,0 km/h (0 Bft) S-SW 201 0 min 0,000 mm 0,0 UV-I 0 W/m -0,1 C 2,5 C 0,0 km/h (0 Bft) 0,00 %
06.12.2014 21:00 2,4 C 79 % 1021,4 hPa 0,0 l/m 0,0 km/h (0 Bft) SW 223 0 min 0,000 mm 0,0 UV-I 0 W/m -0,9 C 2,4 C 0,0 km/h (0 Bft) 0,00 %
06.12.2014 21:15 2,4 C 79 % 1021,4 hPa 0,0 l/m 0,0 km/h (0 Bft) W-SW 251 0 min 0,000 mm 0,0 UV-I 0 W/m -0,9 C 2,4 C 0,0 km/h (0 Bft) 0,00 %
06.12.2014 21:30 2,4 C 79 % 1021,5 hPa 0,0 l/m 0,0 km/h (0 Bft) S-SW 201 0 min 0,000 mm 0,0 UV-I 0 W/m -0,9 C 2,4 C 0,0 km/h (0 Bft) 0,00 %
06.12.2014 21:45 2,4 C 80 % 1021,5 hPa 0,0 l/m 0,0 km/h (0 Bft) S 183 0 min 0,000 mm 0,0 UV-I 0 W/m -0,7 C 2,4 C 0,0 km/h (0 Bft) 0,00 %
06.12.2014 22:00 2,5 C 84 % 1021,2 hPa 0,0 l/m 0,0 km/h (0 Bft) SW 222 0 min 0,000 mm 0,0 UV-I 0 W/m 0,1 C 2,5 C 0,0 km/h (0 Bft) 0,00 %
06.12.2014 22:15 2,4 C 80 % 1021,4 hPa 0,0 l/m 0,0 km/h (0 Bft) SW 228 0 min 0,000 mm 0,0 UV-I 0 W/m -0,7 C 2,4 C 0,0 km/h (0 Bft) 0,00 %
06.12.2014 22:30 2,4 C 80 % 1021,6 hPa 0,0 l/m 0,4 km/h (0 Bft) W-SW 250 0 min 0,000 mm 0,0 UV-I 0 W/m -0,7 C 2,4 C 4,0 km/h (1 Bft) 0,00 %
06.12.2014 22:45 2,4 C 80 % 1021,7 hPa 0,0 l/m 0,0 km/h (0 Bft) SW 234 0 min 0,000 mm 0,0 UV-I 0 W/m -0,7 C 2,4 C 0,0 km/h (0 Bft) 0,00 %
06.12.2014 23:00 2,4 C 80 % 1021,6 hPa 0,0 l/m 0,0 km/h (0 Bft) W-SW 255 0 min 0,000 mm 0,0 UV-I 0 W/m -0,7 C 2,4 C 0,0 km/h (0 Bft) 0,00 %
06.12.2014 23:15 2,4 C 80 % 1021,6 hPa 0,0 l/m 0,0 km/h (0 Bft) S-SW 199 0 min 0,000 mm 0,0 UV-I 0 W/m -0,7 C 2,4 C 0,0 km/h (0 Bft) 0,00 %
06.12.2014 23:30 2,4 C 80 % 1021,6 hPa 0,0 l/m 0,0 km/h (0 Bft) W-SW 240 0 min 0,000 mm 0,0 UV-I 0 W/m -0,7 C 2,4 C 0,0 km/h (0 Bft) 0,00 %
06.12.2014 23:45 2,4 C 80 % 1021,7 hPa 0,3 l/m 0,0 km/h (0 Bft) SW 231 0 min 0,000 mm 0,0 UV-I 0 W/m -0,7 C 2,4 C 0,0 km/h (0 Bft) 0,00 %
_ Min-Zeit 21:00 13:45 01:00 - 00:00 - - - - - - 21:00 21:00 00:00 00:00
Minimum _ 2,4 C 76 % 1017,8 hPa - 0,0 km/h (0 Bft) - - - - - - -0,9 C 2,4 C 0,0 km/h (0 Bft) 0,00 %
_ Max-Zeit 13:15 00:45 22:45 01:15 14:00 - - 00:00 00:00 09:45 11:45 13:15 13:15 14:00 00:00
Maximum _ 4,4 C 86 % 1021,7 hPa 0,3 l/m 3,2 km/h
W-SW (1 Bft)
- - 0 min 0,000 mm 1,0 UV-I 96 W/m 0,9 C 4,4 C 7,9 km/h
W-SW (2 Bft)
0,00 %
Durchschnitt _ 3,1 C 82 % 1019,8 hPa #0,9 l/m 0,1 km/h (0 Bft) W-SW - #0 min. #0,000 mm 1,0 UV-I 54 W/m 0,4 C 3,1 C 0,4 km/h (0 Bft) 0,00 %